Time,TemperatureF,DewpointF,PressureIn,WindDirection,WindDirectionDegrees,WindSpeedMPH,WindSpeedGustMPH,Humidity,HourlyPrecipIn,Conditions,Clouds,dailyrainin,SoftwareType,DateUTC
2013-05-05 00:03:00,50.7,40.2,30.01,NE,34,0.0,5.0,67,0.00,,---,0.00,VWS V14.01,2013-05-05 05:03:00,
2013-05-05 00:08:00,50.6,40.1,30.01,NNE,19,0.0,3.0,67,0.00,,---,0.00,VWS V14.01,2013-05-05 05:08:00,
2013-05-05 00:13:00,50.6,40.1,30.01,NNE,17,4.0,4.0,67,0.00,,---,0.00,VWS V14.01,2013-05-05 05:13:00,
2013-05-05 00:18:00,50.5,40.0,30.02,NNE,19,0.0,0.0,67,0.00,,---,0.00,VWS V14.01,2013-05-05 05:18:00,
2013-05-05 00:23:00,50.3,39.8,30.01,NNE,19,0.0,0.0,67,0.00,,---,0.00,VWS V14.01,2013-05-05 05:23:00,
2013-05-05 00:28:00,50.1,40.0,30.02,NNE,19,0.0,0.0,68,0.00,,---,0.00,VWS V14.01,2013-05-05 05:28:00,
2013-05-05 00:33:00,49.8,40.0,30.02,NNE,19,0.0,0.0,69,0.00,,---,0.00,VWS V14.01,2013-05-05 05:33:00,
2013-05-05 00:38:00,49.6,39.9,30.02,NNE,19,0.0,0.0,69,0.00,,---,0.00,VWS V14.01,2013-05-05 05:38:00,
2013-05-05 00:43:00,49.3,39.9,30.02,NNE,19,0.0,0.0,70,0.00,,---,0.00,VWS V14.01,2013-05-05 05:43:00,
2013-05-05 00:48:00,49.1,39.8,30.02,NNE,19,0.0,0.0,70,0.00,,---,0.00,VWS V14.01,2013-05-05 05:48:00,
2013-05-05 00:53:00,49.0,40.0,30.02,NNE,19,0.0,0.0,71,0.00,,---,0.00,VWS V14.01,2013-05-05 05:53:00,
2013-05-05 00:59:00,48.9,39.9,30.02,NNE,19,0.0,0.0,71,0.00,,---,0.00,VWS V14.01,2013-05-05 05:59:00,
2013-05-05 01:04:00,48.7,39.7,30.03,NNE,19,0.0,0.0,71,0.00,,---,0.00,VWS V14.01,2013-05-05 06:04:00,
2013-05-05 01:09:00,48.5,39.9,30.03,NNE,19,0.0,0.0,72,0.00,,---,0.00,VWS V14.01,2013-05-05 06:09:00,
2013-05-05 01:14:00,48.4,39.8,30.03,NNE,19,0.0,0.0,72,0.00,,---,0.00,VWS V14.01,2013-05-05 06:14:00,
2013-05-05 01:19:00,48.2,40.0,30.03,NNE,18,0.0,3.0,73,0.00,,---,0.00,VWS V14.01,2013-05-05 06:19:00,
2013-05-05 01:24:00,48.0,39.8,30.03,NNE,32,4.0,4.0,73,0.00,,---,0.00,VWS V14.01,2013-05-05 06:24:00,
2013-05-05 01:29:00,48.3,39.7,30.03,NNE,23,0.0,7.0,72,0.00,,---,0.00,VWS V14.01,2013-05-05 06:29:00,
2013-05-05 01:34:00,48.6,39.6,30.03,North,5,1.0,7.0,71,0.00,,---,0.00,VWS V14.01,2013-05-05 06:34:00,
2013-05-05 01:39:00,48.8,39.8,30.02,NNE,19,6.0,9.0,71,0.00,,---,0.00,VWS V14.01,2013-05-05 06:39:00,
2013-05-05 01:44:00,48.9,39.6,30.03,NNE,29,4.0,8.0,70,0.00,,---,0.00,VWS V14.01,2013-05-05 06:44:00,
2013-05-05 01:49:00,49.0,39.3,30.03,North,11,4.0,5.0,69,0.00,,---,0.00,VWS V14.01,2013-05-05 06:49:00,
2013-05-05 01:54:00,49.0,39.3,30.03,NNE,17,5.0,7.0,69,0.00,,---,0.00,VWS V14.01,2013-05-05 06:54:00,
2013-05-05 01:59:00,49.0,39.3,30.03,NNE,20,8.0,8.0,69,0.00,,---,0.00,VWS V14.01,2013-05-05 06:59:00,
2013-05-05 02:04:00,49.1,39.4,30.03,NNW,330,2.0,6.0,69,0.00,,---,0.00,VWS V14.01,2013-05-05 07:04:00,
2013-05-05 02:10:00,49.0,39.3,30.03,NNE,16,2.0,4.0,69,0.00,,---,0.00,VWS V14.01,2013-05-05 07:10:00,
2013-05-05 02:15:00,48.8,39.1,30.03,NNE,32,1.0,8.0,69,0.00,,---,0.00,VWS V14.01,2013-05-05 07:15:00,
2013-05-05 02:20:00,48.6,39.3,30.03,NNW,344,1.0,7.0,70,0.00,,---,0.00,VWS V14.01,2013-05-05 07:20:00,
2013-05-05 02:25:00,48.5,39.2,30.02,North,9,0.0,2.0,70,0.00,,---,0.00,VWS V14.01,2013-05-05 07:25:00,
2013-05-05 02:30:00,48.3,39.0,30.02,NNW,336,0.0,4.0,70,0.00,,---,0.00,VWS V14.01,2013-05-05 07:30:00,
2013-05-05 02:35:00,48.1,38.8,30.02,NNE,13,0.0,2.0,70,0.00,,---,0.00,VWS V14.01,2013-05-05 07:35:00,
2013-05-05 02:40:00,48.0,38.7,30.02,NNW,329,1.0,5.0,70,0.00,,---,0.00,VWS V14.01,2013-05-05 07:40:00,
2013-05-05 02:45:00,48.1,38.8,30.02,NNE,23,0.0,4.0,70,0.00,,---,0.00,VWS V14.01,2013-05-05 07:45:00,
2013-05-05 02:50:00,47.9,39.0,30.02,NNE,22,0.0,0.0,71,0.00,,---,0.00,VWS V14.01,2013-05-05 07:50:00,
2013-05-05 02:55:00,47.7,38.8,30.02,NNE,22,0.0,1.0,71,0.00,,---,0.00,VWS V14.01,2013-05-05 07:55:00,
2013-05-05 03:00:00,47.4,38.8,30.02,NNE,22,0.0,3.0,72,0.00,,---,0.00,VWS V14.01,2013-05-05 08:00:00,
2013-05-05 03:05:00,47.3,38.7,30.02,NNE,22,0.0,4.0,72,0.00,,---,0.00,VWS V14.01,2013-05-05 08:05:00,
2013-05-05 03:10:00,47.2,39.0,30.02,North,360,0.0,4.0,73,0.00,,---,0.00,VWS V14.01,2013-05-05 08:10:00,
2013-05-05 03:15:00,47.1,38.9,30.02,NNW,342,0.0,3.0,73,0.00,,---,0.00,VWS V14.01,2013-05-05 08:15:00,
2013-05-05 03:20:00,47.1,38.9,30.02,NNW,344,0.0,4.0,73,0.00,,---,0.00,VWS V14.01,2013-05-05 08:20:00,
2013-05-05 03:26:00,47.2,39.0,30.02,NNW,346,0.0,3.0,73,0.00,,---,0.00,VWS V14.01,2013-05-05 08:26:00,
2013-05-05 03:31:00,47.3,39.1,30.02,NW,322,1.0,4.0,73,0.00,,---,0.00,VWS V14.01,2013-05-05 08:31:00,
2013-05-05 03:36:00,47.3,39.1,30.02,NNW,335,0.0,8.0,73,0.00,,---,0.00,VWS V14.01,2013-05-05 08:36:00,
2013-05-05 03:41:00,47.3,39.1,30.02,NW,323,0.0,6.0,73,0.00,,---,0.00,VWS V14.01,2013-05-05 08:41:00,
2013-05-05 03:46:00,47.3,39.1,30.02,NNW,340,0.0,5.0,73,0.00,,---,0.00,VWS V14.01,2013-05-05 08:46:00,
2013-05-05 03:51:00,47.2,39.0,30.02,NNW,331,1.0,6.0,73,0.00,,---,0.00,VWS V14.01,2013-05-05 08:51:00,
2013-05-05 03:56:00,47.2,39.0,30.02,NNW,342,3.0,4.0,73,0.00,,---,0.00,VWS V14.01,2013-05-05 08:56:00,
2013-05-05 04:01:00,47.2,39.0,30.03,North,355,0.0,5.0,73,0.00,,---,0.00,VWS V14.01,2013-05-05 09:01:00,
2013-05-05 04:06:00,47.2,39.0,30.03,NNW,340,0.0,5.0,73,0.00,,---,0.00,VWS V14.01,2013-05-05 09:06:00,
2013-05-05 04:11:00,47.1,38.9,30.03,NNW,338,0.0,2.0,73,0.00,,---,0.00,VWS V14.01,2013-05-05 09:11:00,
2013-05-05 04:16:00,47.0,38.8,30.03,NNW,334,0.0,6.0,73,0.00,,---,0.00,VWS V14.01,2013-05-05 09:16:00,
2013-05-05 04:21:00,46.9,38.7,30.03,North,11,0.0,6.0,73,0.00,,---,0.00,VWS V14.01,2013-05-05 09:21:00,
2013-05-05 04:26:00,46.9,39.1,30.03,North,360,1.0,3.0,74,0.00,,---,0.00,VWS V14.01,2013-05-05 09:26:00,
2013-05-05 04:31:00,46.8,39.0,30.04,North,360,0.0,2.0,74,0.00,,---,0.00,VWS V14.01,2013-05-05 09:31:00,
2013-05-05 04:37:00,46.8,38.6,30.04,NNE,19,0.0,7.0,73,0.00,,---,0.00,VWS V14.01,2013-05-05 09:37:00,
2013-05-05 04:42:00,46.7,38.5,30.04,North,5,0.0,4.0,73,0.00,,---,0.00,VWS V14.01,2013-05-05 09:42:00,
2013-05-05 04:47:00,46.7,38.5,30.04,NNW,338,0.0,4.0,73,0.00,,---,0.00,VWS V14.01,2013-05-05 09:47:00,
2013-05-05 04:52:00,46.6,38.4,30.04,North,355,1.0,4.0,73,0.00,,---,0.00,VWS V14.01,2013-05-05 09:52:00,
2013-05-05 04:57:00,46.5,38.3,30.05,NW,323,3.0,3.0,73,0.00,,---,0.00,VWS V14.01,2013-05-05 09:57:00,
2013-05-05 05:02:00,46.5,38.3,30.05,NW,321,0.0,3.0,73,0.00,,---,0.00,VWS V14.01,2013-05-05 10:02:00,
2013-05-05 05:07:00,46.5,38.3,30.05,NW,325,0.0,3.0,73,0.00,,---,0.00,VWS V14.01,2013-05-05 10:07:00,
2013-05-05 05:12:00,46.4,38.6,30.05,NNW,339,0.0,6.0,74,0.00,,---,0.00,VWS V14.01,2013-05-05 10:12:00,
2013-05-05 05:17:00,46.4,38.6,30.05,NW,321,0.0,8.0,74,0.00,,---,0.00,VWS V14.01,2013-05-05 10:17:00,
2013-05-05 05:22:00,46.4,38.6,30.05,NNW,332,0.0,3.0,74,0.00,,---,0.00,VWS V14.01,2013-05-05 10:22:00,
2013-05-05 05:27:00,46.4,38.6,30.05,NNW,328,0.0,2.0,74,0.00,,---,0.00,VWS V14.01,2013-05-05 10:27:00,
2013-05-05 05:32:00,46.2,38.4,30.05,NNW,327,2.0,2.0,74,0.00,,---,0.00,VWS V14.01,2013-05-05 10:32:00,
2013-05-05 05:37:00,46.1,38.3,30.05,NW,315,5.0,5.0,74,0.00,,---,0.00,VWS V14.01,2013-05-05 10:37:00,
2013-05-05 05:42:00,46.0,38.5,30.05,NW,313,0.0,3.0,75,0.00,,---,0.00,VWS V14.01,2013-05-05 10:42:00,
2013-05-05 05:48:00,46.0,38.5,30.06,NW,316,0.0,3.0,75,0.00,,---,0.00,VWS V14.01,2013-05-05 10:48:00,
2013-05-05 05:53:00,46.0,38.5,30.06,NW,326,0.0,5.0,75,0.00,,---,0.00,VWS V14.01,2013-05-05 10:53:00,
2013-05-05 05:58:00,46.1,38.6,30.06,NNW,328,3.0,5.0,75,0.00,,---,0.00,VWS V14.01,2013-05-05 10:58:00,
2013-05-05 06:03:00,46.1,38.3,30.06,NNW,327,1.0,6.0,74,0.00,,---,0.00,VWS V14.01,2013-05-05 11:03:00,
2013-05-05 06:08:00,46.1,38.3,30.06,NW,314,6.0,6.0,74,0.00,,---,0.00,VWS V14.01,2013-05-05 11:08:00,
2013-05-05 06:13:00,46.1,38.6,30.06,NNW,334,1.0,6.0,75,0.00,,---,0.00,VWS V14.01,2013-05-05 11:13:00,
2013-05-05 06:18:00,46.0,38.5,30.06,NW,323,7.0,7.0,75,0.00,,---,0.00,VWS V14.01,2013-05-05 11:18:00,
2013-05-05 06:23:00,46.1,38.3,30.06,NW,317,3.0,6.0,74,0.00,,---,0.00,VWS V14.01,2013-05-05 11:23:00,
2013-05-05 06:28:00,46.2,38.4,30.07,NW,306,3.0,6.0,74,0.00,,---,0.00,VWS V14.01,2013-05-05 11:28:00,
2013-05-05 06:33:00,46.3,38.5,30.07,NW,318,4.0,6.0,74,0.00,,---,0.00,VWS V14.01,2013-05-05 11:33:00,
2013-05-05 06:38:00,46.4,38.6,30.07,NW,323,2.0,7.0,74,0.00,,---,0.00,VWS V14.01,2013-05-05 11:38:00,
2013-05-05 06:43:00,46.5,38.7,30.07,WNW,302,1.0,6.0,74,0.00,,---,0.00,VWS V14.01,2013-05-05 11:43:00,
2013-05-05 06:48:00,46.6,38.8,30.08,NW,312,3.0,8.0,74,0.00,,---,0.00,VWS V14.01,2013-05-05 11:48:00,
2013-05-05 06:54:00,46.7,38.9,30.08,NW,320,2.0,3.0,74,0.00,,---,0.00,VWS V14.01,2013-05-05 11:54:00,
2013-05-05 06:59:00,47.0,38.8,30.08,WNW,302,3.0,4.0,73,0.00,,---,0.00,VWS V14.01,2013-05-05 11:59:00,
2013-05-05 07:04:00,47.3,39.1,30.08,WNW,301,1.0,5.0,73,0.00,,---,0.00,VWS V14.01,2013-05-05 12:04:00,
2013-05-05 07:09:00,47.7,39.1,30.08,NW,306,3.0,5.0,72,0.00,,---,0.00,VWS V14.01,2013-05-05 12:09:00,
2013-05-05 07:14:00,48.1,39.2,30.08,NW,316,4.0,7.0,71,0.00,,---,0.00,VWS V14.01,2013-05-05 12:14:00,
2013-05-05 07:19:00,48.5,39.2,30.08,North,355,4.0,5.0,70,0.00,,---,0.00,VWS V14.01,2013-05-05 12:19:00,
2013-05-05 07:24:00,48.9,39.2,30.09,NW,320,5.0,5.0,69,0.00,,---,0.00,VWS V14.01,2013-05-05 12:24:00,
2013-05-05 07:29:00,49.2,39.1,30.09,NW,320,4.0,9.0,68,0.00,,---,0.00,VWS V14.01,2013-05-05 12:29:00,
2013-05-05 07:34:00,49.6,39.1,30.09,NW,321,4.0,5.0,67,0.00,,---,0.00,VWS V14.01,2013-05-05 12:34:00,
2013-05-05 07:39:00,50.0,39.5,30.09,WNW,298,0.0,8.0,67,0.00,,---,0.00,VWS V14.01,2013-05-05 12:39:00,
2013-05-05 07:44:00,50.3,39.4,30.10,NNW,344,2.0,9.0,66,0.00,,---,0.00,VWS V14.01,2013-05-05 12:44:00,
2013-05-05 07:49:00,50.6,39.7,30.10,NW,311,9.0,12.0,66,0.00,,---,0.00,VWS V14.01,2013-05-05 12:49:00,
2013-05-05 07:54:00,50.9,40.0,30.10,NNW,327,4.0,9.0,66,0.00,,---,0.00,VWS V14.01,2013-05-05 12:54:00,
2013-05-05 08:00:00,51.3,39.5,30.10,NW,324,4.0,10.0,64,0.00,,---,0.00,VWS V14.01,2013-05-05 13:00:00,
2013-05-05 08:05:00,51.5,39.3,30.10,North,5,7.0,14.0,63,0.00,,---,0.00,VWS V14.01,2013-05-05 13:05:00,
2013-05-05 08:10:00,51.8,39.6,30.10,NNW,339,4.0,11.0,63,0.00,,---,0.00,VWS V14.01,2013-05-05 13:10:00,
2013-05-05 08:15:00,52.0,39.4,30.11,NNW,328,10.0,12.0,62,0.00,,---,0.00,VWS V14.01,2013-05-05 13:15:00,
2013-05-05 08:20:00,52.1,39.5,30.11,WNW,303,6.0,11.0,62,0.00,,---,0.00,VWS V14.01,2013-05-05 13:20:00,
2013-05-05 08:25:00,52.4,39.8,30.11,NNW,337,8.0,10.0,62,0.00,,---,0.00,VWS V14.01,2013-05-05 13:25:00,
2013-05-05 08:30:00,52.7,40.1,30.11,NW,321,0.0,9.0,62,0.00,,---,0.00,VWS V14.01,2013-05-05 13:30:00,
2013-05-05 08:35:00,53.2,40.1,30.12,NNW,336,4.0,13.0,61,0.00,,---,0.00,VWS V14.01,2013-05-05 13:35:00,
2013-05-05 08:40:00,53.3,40.2,30.12,North,355,5.0,12.0,61,0.00,,---,0.00,VWS V14.01,2013-05-05 13:40:00,
2013-05-05 08:45:00,53.4,40.7,30.12,NW,317,4.0,10.0,62,0.00,,---,0.00,VWS V14.01,2013-05-05 13:45:00,
2013-05-05 08:50:00,54.0,41.7,30.12,North,9,7.0,7.0,63,0.00,,---,0.00,VWS V14.01,2013-05-05 13:50:00,
2013-05-05 08:55:00,54.0,40.9,30.12,NNW,336,0.0,10.0,61,0.00,,---,0.00,VWS V14.01,2013-05-05 13:55:00,
2013-05-05 09:01:00,54.2,41.1,30.12,NNE,23,4.0,12.0,61,0.00,,---,0.00,VWS V14.01,2013-05-05 14:01:00,
2013-05-05 09:06:00,54.5,41.3,30.12,NNE,13,9.0,11.0,61,0.00,,---,0.00,VWS V14.01,2013-05-05 14:06:00,
2013-05-05 09:11:00,54.9,41.7,30.12,NE,36,4.0,12.0,61,0.00,,---,0.00,VWS V14.01,2013-05-05 14:11:00,
2013-05-05 09:16:00,55.1,41.5,30.12,NW,313,2.0,12.0,60,0.00,,---,0.00,VWS V14.01,2013-05-05 14:16:00,
2013-05-05 09:21:00,55.3,41.2,30.13,NW,324,9.0,14.0,59,0.00,,---,0.00,VWS V14.01,2013-05-05 14:21:00,
2013-05-05 09:26:00,55.3,40.8,30.13,NNW,339,5.0,16.0,58,0.00,,---,0.00,VWS V14.01,2013-05-05 14:26:00,
2013-05-05 09:31:00,55.3,42.1,30.12,NE,43,1.0,16.0,61,0.00,,---,0.00,VWS V14.01,2013-05-05 14:31:00,
2013-05-05 09:36:00,55.4,41.8,30.12,NNE,13,11.0,12.0,60,0.00,,---,0.00,VWS V14.01,2013-05-05 14:36:00,
2013-05-05 09:41:00,55.1,41.9,30.13,North,5,4.0,10.0,61,0.00,,---,0.00,VWS V14.01,2013-05-05 14:41:00,
2013-05-05 09:46:00,55.6,42.0,30.13,NNW,342,7.0,11.0,60,0.00,,---,0.00,VWS V14.01,2013-05-05 14:46:00,
2013-05-05 09:51:00,55.9,41.3,30.13,NNE,23,8.0,12.0,58,0.00,,---,0.00,VWS V14.01,2013-05-05 14:51:00,
2013-05-05 09:56:00,56.2,41.6,30.13,North,355,0.0,13.0,58,0.00,,---,0.00,VWS V14.01,2013-05-05 14:56:00,
2013-05-05 10:01:00,56.4,42.7,30.13,NNW,346,6.0,11.0,60,0.00,,---,0.00,VWS V14.01,2013-05-05 15:01:00,
2013-05-05 10:06:00,56.2,42.5,30.13,North,355,9.0,10.0,60,0.00,,---,0.00,VWS V14.01,2013-05-05 15:06:00,
2013-05-05 10:11:00,55.6,42.0,30.13,NNE,13,8.0,8.0,60,0.00,,---,0.00,VWS V14.01,2013-05-05 15:11:00,
2013-05-05 10:17:00,55.3,43.3,30.13,North,355,3.0,11.0,64,0.00,,---,0.00,VWS V14.01,2013-05-05 15:17:00,
2013-05-05 10:22:00,55.9,41.8,30.13,NW,318,7.0,18.0,59,0.00,,---,0.00,VWS V14.01,2013-05-05 15:22:00,
2013-05-05 10:27:00,56.7,43.8,30.13,NNW,327,10.0,10.0,62,0.00,,---,0.00,VWS V14.01,2013-05-05 15:27:00,
2013-05-05 10:32:00,56.9,42.3,30.14,NNW,329,11.0,12.0,58,0.00,,---,0.00,VWS V14.01,2013-05-05 15:32:00,
2013-05-05 10:37:00,57.7,43.5,30.13,North,5,1.0,7.0,59,0.00,,---,0.00,VWS V14.01,2013-05-05 15:37:00,
2013-05-05 10:42:00,57.8,42.7,30.13,North,360,5.0,14.0,57,0.00,,---,0.00,VWS V14.01,2013-05-05 15:42:00,
2013-05-05 10:47:00,56.9,42.7,30.14,North,5,5.0,10.0,59,0.00,,---,0.00,VWS V14.01,2013-05-05 15:47:00,
2013-05-05 10:52:00,56.7,42.5,30.13,North,355,5.0,10.0,59,0.00,,---,0.00,VWS V14.01,2013-05-05 15:52:00,
2013-05-05 10:57:00,56.4,42.7,30.14,NE,34,9.0,14.0,60,0.00,,---,0.00,VWS V14.01,2013-05-05 15:57:00,
2013-05-05 11:02:00,56.6,43.3,30.14,NE,43,6.0,7.0,61,0.00,,---,0.00,VWS V14.01,2013-05-05 16:02:00,
2013-05-05 11:07:00,57.3,42.7,30.14,NNW,336,2.0,9.0,58,0.00,,---,0.00,VWS V14.01,2013-05-05 16:07:00,
2013-05-05 11:12:00,58.0,42.9,30.14,North,360,7.0,14.0,57,0.00,,---,0.00,VWS V14.01,2013-05-05 16:12:00,
2013-05-05 11:17:00,58.5,43.8,30.14,NNW,333,6.0,11.0,58,0.00,,---,0.00,VWS V14.01,2013-05-05 16:17:00,
2013-05-05 11:22:00,58.8,43.2,30.14,NNE,20,1.0,8.0,56,0.00,,---,0.00,VWS V14.01,2013-05-05 16:22:00,
2013-05-05 11:28:00,58.6,43.0,30.14,North,360,1.0,6.0,56,0.00,,---,0.00,VWS V14.01,2013-05-05 16:28:00,
2013-05-05 11:33:00,58.8,43.2,30.14,NNE,32,9.0,12.0,56,0.00,,---,0.00,VWS V14.01,2013-05-05 16:33:00,
2013-05-05 11:38:00,59.5,44.7,30.14,NW,309,5.0,10.0,58,0.00,,---,0.00,VWS V14.01,2013-05-05 16:38:00,
2013-05-05 11:43:00,59.6,43.0,30.14,NNW,339,6.0,9.0,54,0.00,,---,0.00,VWS V14.01,2013-05-05 16:43:00,
2013-05-05 11:48:00,59.1,43.0,30.14,NNE,24,2.0,12.0,55,0.00,,---,0.00,VWS V14.01,2013-05-05 16:48:00,
2013-05-05 11:53:00,58.9,42.3,30.14,NNW,338,3.0,9.0,54,0.00,,---,0.00,VWS V14.01,2013-05-05 16:53:00,
2013-05-05 11:58:00,58.9,42.8,30.14,North,360,3.0,9.0,55,0.00,,---,0.00,VWS V14.01,2013-05-05 16:58:00,
2013-05-05 12:03:00,59.3,43.2,30.14,North,350,5.0,13.0,55,0.00,,---,0.00,VWS V14.01,2013-05-05 17:03:00,
2013-05-05 12:08:00,59.3,43.2,30.13,NNE,24,12.0,12.0,55,0.00,,---,0.00,VWS V14.01,2013-05-05 17:08:00,
2013-05-05 12:13:00,59.7,44.5,30.13,NNE,15,2.0,14.0,57,0.00,,---,0.00,VWS V14.01,2013-05-05 17:13:00,
2013-05-05 12:18:00,60.1,43.9,30.13,NNE,16,12.0,12.0,55,0.00,,---,0.00,VWS V14.01,2013-05-05 17:18:00,
2013-05-05 12:23:00,59.9,43.7,30.13,NNW,336,7.0,16.0,55,0.00,,---,0.00,VWS V14.01,2013-05-05 17:23:00,
2013-05-05 12:29:00,60.2,44.0,30.13,NE,35,6.0,8.0,55,0.00,,---,0.00,VWS V14.01,2013-05-05 17:29:00,
2013-05-05 12:34:00,59.1,43.4,30.13,North,10,9.0,11.0,56,0.00,,---,0.00,VWS V14.01,2013-05-05 17:34:00,
2013-05-05 12:39:00,59.9,45.1,30.12,NNE,15,9.0,14.0,58,0.00,,---,0.00,VWS V14.01,2013-05-05 17:39:00,
2013-05-05 12:44:00,61.3,46.0,30.12,NNW,343,4.0,15.0,57,0.00,,---,0.00,VWS V14.01,2013-05-05 17:44:00,
2013-05-05 12:49:00,61.9,43.6,30.12,NNW,346,4.0,12.0,51,0.00,,---,0.00,VWS V14.01,2013-05-05 17:49:00,
2013-05-05 12:54:00,61.8,43.5,30.12,North,5,5.0,8.0,51,0.00,,---,0.00,VWS V14.01,2013-05-05 17:54:00,
2013-05-05 12:59:00,62.0,44.2,30.12,NW,317,4.0,12.0,52,0.00,,---,0.00,VWS V14.01,2013-05-05 17:59:00,
2013-05-05 13:04:00,61.8,43.5,30.12,NNW,331,2.0,9.0,51,0.00,,---,0.00,VWS V14.01,2013-05-05 18:04:00,
2013-05-05 13:09:00,62.4,46.0,30.12,North,355,9.0,12.0,55,0.00,,---,0.00,VWS V14.01,2013-05-05 18:09:00,
2013-05-05 13:14:00,62.6,44.2,30.11,West,266,0.0,12.0,51,0.00,,---,0.00,VWS V14.01,2013-05-05 18:14:00,
2013-05-05 13:19:00,62.9,43.5,30.12,NNW,341,9.0,11.0,49,0.00,,---,0.00,VWS V14.01,2013-05-05 18:19:00,
2013-05-05 13:24:00,62.5,44.2,30.11,NNW,329,4.0,10.0,51,0.00,,---,0.00,VWS V14.01,2013-05-05 18:24:00,
2013-05-05 13:29:00,62.7,45.3,30.11,WNW,282,8.0,10.0,53,0.00,,---,0.00,VWS V14.01,2013-05-05 18:29:00,
2013-05-05 13:34:00,63.1,43.7,30.11,WNW,282,8.0,10.0,49,0.00,,---,0.00,VWS V14.01,2013-05-05 18:34:00,
2013-05-05 13:40:00,62.8,44.4,30.11,NNW,329,11.0,13.0,51,0.00,,---,0.00,VWS V14.01,2013-05-05 18:40:00,
2013-05-05 13:45:00,62.4,44.6,30.11,North,360,9.0,11.0,52,0.00,,---,0.00,VWS V14.01,2013-05-05 18:45:00,
2013-05-05 13:50:00,62.3,46.0,30.11,North,355,6.0,12.0,55,0.00,,---,0.00,VWS V14.01,2013-05-05 18:50:00,
2013-05-05 13:55:00,62.9,45.5,30.10,WNW,300,6.0,13.0,53,0.00,,---,0.00,VWS V14.01,2013-05-05 18:55:00,
2013-05-05 14:00:00,63.1,45.2,30.10,NNE,17,6.0,13.0,52,0.00,,---,0.00,VWS V14.01,2013-05-05 19:00:00,
2013-05-05 14:05:00,62.8,46.9,30.10,NE,45,10.0,12.0,56,0.00,,---,0.00,VWS V14.01,2013-05-05 19:05:00,
2013-05-05 14:10:00,62.2,44.9,30.10,NE,43,8.0,13.0,53,0.00,,---,0.00,VWS V14.01,2013-05-05 19:10:00,
2013-05-05 14:15:00,61.8,45.5,30.10,NNE,13,3.0,9.0,55,0.00,,---,0.00,VWS V14.01,2013-05-05 19:15:00,
2013-05-05 14:20:00,62.6,44.8,30.09,West,259,7.0,13.0,52,0.00,,---,0.00,VWS V14.01,2013-05-05 19:20:00,
2013-05-05 14:25:00,63.7,45.2,30.09,NNW,342,4.0,6.0,51,0.00,,---,0.00,VWS V14.01,2013-05-05 19:25:00,
2013-05-05 14:30:00,64.3,45.8,30.10,NNE,20,1.0,9.0,51,0.00,,---,0.00,VWS V14.01,2013-05-05 19:30:00,
2013-05-05 14:35:00,63.8,46.4,30.09,NNW,333,5.0,8.0,53,0.00,,---,0.00,VWS V14.01,2013-05-05 19:35:00,
2013-05-05 14:40:00,62.9,45.0,30.09,NW,315,0.0,11.0,52,0.00,,---,0.00,VWS V14.01,2013-05-05 19:40:00,
2013-05-05 14:46:00,63.0,45.1,30.08,NNE,28,7.0,12.0,52,0.00,,---,0.00,VWS V14.01,2013-05-05 19:46:00,
2013-05-05 14:51:00,63.7,45.8,30.09,NNE,22,3.0,6.0,52,0.00,,---,0.00,VWS V14.01,2013-05-05 19:51:00,
2013-05-05 14:56:00,63.6,46.2,30.09,NW,322,1.0,9.0,53,0.00,,---,0.00,VWS V14.01,2013-05-05 19:56:00,
2013-05-05 15:01:00,63.7,45.8,30.08,North,349,3.0,10.0,52,0.00,,---,0.00,VWS V14.01,2013-05-05 20:01:00,
2013-05-05 15:06:00,63.4,47.0,30.08,NNE,28,8.0,13.0,55,0.00,,---,0.00,VWS V14.01,2013-05-05 20:06:00,
2013-05-05 15:11:00,64.1,46.6,30.08,NNE,17,8.0,15.0,53,0.00,,---,0.00,VWS V14.01,2013-05-05 20:11:00,
2013-05-05 15:16:00,63.3,46.4,30.08,NNW,333,1.0,13.0,54,0.00,,---,0.00,VWS V14.01,2013-05-05 20:16:00,
2013-05-05 15:21:00,63.6,46.2,30.08,North,5,10.0,11.0,53,0.00,,---,0.00,VWS V14.01,2013-05-05 20:21:00,
2013-05-05 15:26:00,63.9,46.5,30.07,NNW,333,3.0,9.0,53,0.00,,---,0.00,VWS V14.01,2013-05-05 20:26:00,
2013-05-05 15:31:00,64.9,45.3,30.07,WNW,284,7.0,11.0,49,0.00,,---,0.00,VWS V14.01,2013-05-05 20:31:00,
2013-05-05 15:36:00,65.4,45.8,30.07,NNW,337,7.0,9.0,49,0.00,,---,0.00,VWS V14.01,2013-05-05 20:36:00,
2013-05-05 15:41:00,65.9,46.2,30.06,NW,321,1.0,7.0,49,0.00,,---,0.00,VWS V14.01,2013-05-05 20:41:00,
2013-05-05 15:46:00,66.7,46.4,30.06,WNW,284,0.0,10.0,48,0.00,,---,0.00,VWS V14.01,2013-05-05 20:46:00,
2013-05-05 15:51:00,66.5,46.8,30.06,North,11,5.0,9.0,49,0.00,,---,0.00,VWS V14.01,2013-05-05 20:51:00,
2013-05-05 15:57:00,65.4,45.8,30.06,NE,34,5.0,14.0,49,0.00,,---,0.00,VWS V14.01,2013-05-05 20:57:00,
2013-05-05 16:02:00,64.9,47.4,30.05,West,281,9.0,9.0,53,0.00,,---,0.00,VWS V14.01,2013-05-05 21:02:00,
2013-05-05 16:07:00,65.6,46.5,30.05,NNW,329,8.0,13.0,50,0.00,,---,0.00,VWS V14.01,2013-05-05 21:07:00,
2013-05-05 16:12:00,65.3,46.7,30.05,NW,315,4.0,10.0,51,0.00,,---,0.00,VWS V14.01,2013-05-05 21:12:00,
2013-05-05 16:17:00,65.2,47.2,30.05,NW,307,7.0,9.0,52,0.00,,---,0.00,VWS V14.01,2013-05-05 21:17:00,
2013-05-05 16:22:00,65.3,46.2,30.05,NNE,19,3.0,10.0,50,0.00,,---,0.00,VWS V14.01,2013-05-05 21:22:00,
2013-05-05 16:27:00,65.6,46.5,30.05,NNW,340,4.0,11.0,50,0.00,,---,0.00,VWS V14.01,2013-05-05 21:27:00,
2013-05-05 16:32:00,65.9,46.2,30.04,NNW,338,2.0,14.0,49,0.00,,---,0.00,VWS V14.01,2013-05-05 21:32:00,
2013-05-05 16:37:00,65.7,47.1,30.04,NNE,22,0.0,9.0,51,0.00,,---,0.00,VWS V14.01,2013-05-05 21:37:00,
2013-05-05 16:42:00,66.2,47.0,30.04,North,11,4.0,10.0,50,0.00,,---,0.00,VWS V14.01,2013-05-05 21:42:00,
2013-05-05 16:47:00,65.7,47.1,30.04,NNE,17,8.0,10.0,51,0.00,,---,0.00,VWS V14.01,2013-05-05 21:47:00,
2013-05-05 16:52:00,65.4,46.8,30.04,NNW,330,10.0,12.0,51,0.00,,---,0.00,VWS V14.01,2013-05-05 21:52:00,
2013-05-05 16:58:00,66.0,46.3,30.04,NW,309,5.0,10.0,49,0.00,,---,0.00,VWS V14.01,2013-05-05 21:58:00,
2013-05-05 17:03:00,66.5,46.2,30.03,WNW,296,3.0,10.0,48,0.00,,---,0.00,VWS V14.01,2013-05-05 22:03:00,
2013-05-05 17:08:00,66.6,47.4,30.04,NNE,27,8.0,10.0,50,0.00,,---,0.00,VWS V14.01,2013-05-05 22:08:00,
2013-05-05 17:13:00,66.2,47.0,30.03,NNW,333,5.0,5.0,50,0.00,,---,0.00,VWS V14.01,2013-05-05 22:13:00,
2013-05-05 17:18:00,66.0,46.8,30.03,North,355,6.0,12.0,50,0.00,,---,0.00,VWS V14.01,2013-05-05 22:18:00,
2013-05-05 17:23:00,65.9,46.8,30.03,NNE,24,8.0,12.0,50,0.00,,---,0.00,VWS V14.01,2013-05-05 22:23:00,
2013-05-05 17:28:00,65.6,47.5,30.03,North,5,4.0,6.0,52,0.00,,---,0.00,VWS V14.01,2013-05-05 22:28:00,
2013-05-05 17:33:00,66.2,47.0,30.03,NNW,345,1.0,9.0,50,0.00,,---,0.00,VWS V14.01,2013-05-05 22:33:00,
2013-05-05 17:38:00,66.6,47.4,30.03,NNE,13,2.0,4.0,50,0.00,,---,0.00,VWS V14.01,2013-05-05 22:38:00,
2013-05-05 17:43:00,66.7,47.0,30.03,NW,321,10.0,10.0,49,0.00,,---,0.00,VWS V14.01,2013-05-05 22:43:00,
2013-05-05 19:00:00,64.5,48.0,30.03,NNE,22,3.0,11.0,55,0.00,,---,0.00,VWS V14.01,2013-05-06 00:00:00,
2013-05-05 19:55:00,66.5,46.8,30.03,NNE,24,5.0,9.0,49,0.00,,---,0.00,VWS V14.01,2013-05-06 00:55:00,
2013-05-05 20:00:00,62.0,47.5,30.04,North,10,0.0,0.0,59,0.00,,---,0.00,VWS V14.01,2013-05-06 01:00:00,
2013-05-05 20:05:00,61.7,47.7,30.04,North,10,1.0,4.0,60,0.00,,---,0.00,VWS V14.01,2013-05-06 01:05:00,
2013-05-05 20:10:00,61.2,47.7,30.04,North,11,3.0,6.0,61,0.00,,---,0.00,VWS V14.01,2013-05-06 01:10:00,
2013-05-05 20:15:00,60.9,47.8,30.04,North,11,2.0,4.0,62,0.00,,---,0.00,VWS V14.01,2013-05-06 01:15:00,
2013-05-05 20:20:00,60.7,47.6,30.04,North,11,0.0,5.0,62,0.00,,---,0.00,VWS V14.01,2013-05-06 01:20:00,
2013-05-05 20:25:00,60.5,47.9,30.04,North,11,0.0,3.0,63,0.00,,---,0.00,VWS V14.01,2013-05-06 01:25:00,
2013-05-05 20:30:00,60.3,47.7,30.04,North,11,0.0,0.0,63,0.00,,---,0.00,VWS V14.01,2013-05-06 01:30:00,
2013-05-05 20:35:00,60.0,47.8,30.05,North,11,0.0,0.0,64,0.00,,---,0.00,VWS V14.01,2013-05-06 01:35:00,
2013-05-05 20:40:00,59.6,47.8,30.05,North,11,0.0,0.0,65,0.00,,---,0.00,VWS V14.01,2013-05-06 01:40:00,
2013-05-05 20:45:00,59.2,47.9,30.05,North,11,0.0,0.0,66,0.00,,---,0.00,VWS V14.01,2013-05-06 01:45:00,
2013-05-05 20:50:00,58.8,47.9,30.05,North,11,0.0,0.0,67,0.00,,---,0.00,VWS V14.01,2013-05-06 01:50:00,
2013-05-05 20:55:00,58.3,47.8,30.05,North,11,0.0,0.0,68,0.00,,---,0.00,VWS V14.01,2013-05-06 01:55:00,
2013-05-05 21:00:00,57.8,47.7,30.05,North,11,0.0,0.0,69,0.00,,---,0.00,VWS V14.01,2013-05-06 02:00:00,
2013-05-05 21:06:00,57.3,47.6,30.05,North,11,0.0,0.0,70,0.00,,---,0.00,VWS V14.01,2013-05-06 02:06:00,
2013-05-05 21:11:00,56.9,47.6,30.05,North,11,0.0,0.0,71,0.00,,---,0.00,VWS V14.01,2013-05-06 02:11:00,
2013-05-05 21:16:00,56.7,47.8,30.05,North,11,0.0,0.0,72,0.00,,---,0.00,VWS V14.01,2013-05-06 02:16:00,
2013-05-05 21:21:00,56.6,47.7,30.05,North,11,0.0,0.0,72,0.00,,---,0.00,VWS V14.01,2013-05-06 02:21:00,
2013-05-05 21:26:00,56.6,47.3,30.06,North,11,0.0,0.0,71,0.00,,---,0.00,VWS V14.01,2013-05-06 02:26:00,
2013-05-05 21:31:00,56.6,47.3,30.06,North,11,0.0,0.0,71,0.00,,---,0.00,VWS V14.01,2013-05-06 02:31:00,
2013-05-05 21:36:00,56.4,47.1,30.06,North,11,0.0,0.0,71,0.00,,---,0.00,VWS V14.01,2013-05-06 02:36:00,
2013-05-05 21:41:00,56.1,47.2,30.06,North,11,0.0,0.0,72,0.00,,---,0.00,VWS V14.01,2013-05-06 02:41:00,
2013-05-05 21:46:00,55.9,47.4,30.06,North,11,0.0,0.0,73,0.00,,---,0.00,VWS V14.01,2013-05-06 02:46:00,
2013-05-05 21:51:00,55.6,47.5,30.06,North,11,0.0,0.0,74,0.00,,---,0.00,VWS V14.01,2013-05-06 02:51:00,
2013-05-05 21:56:00,54.9,47.1,30.06,North,11,0.0,0.0,75,0.00,,---,0.00,VWS V14.01,2013-05-06 02:56:00,
2013-05-05 22:01:00,54.2,47.5,30.06,North,11,0.0,0.0,78,0.00,,---,0.00,VWS V14.01,2013-05-06 03:01:00,
2013-05-05 22:07:00,53.6,47.6,30.06,North,11,0.0,0.0,80,0.00,,---,0.00,VWS V14.01,2013-05-06 03:07:00,
2013-05-05 22:12:00,53.2,47.9,30.06,North,11,0.0,0.0,82,0.00,,---,0.00,VWS V14.01,2013-05-06 03:12:00,
2013-05-05 22:17:00,52.8,47.8,30.06,North,11,0.0,0.0,83,0.00,,---,0.00,VWS V14.01,2013-05-06 03:17:00,
2013-05-05 22:22:00,52.7,47.7,30.06,North,11,0.0,0.0,83,0.00,,---,0.00,VWS V14.01,2013-05-06 03:22:00,
2013-05-05 22:27:00,52.4,47.7,30.06,North,11,0.0,0.0,84,0.00,,---,0.00,VWS V14.01,2013-05-06 03:27:00,
2013-05-05 22:32:00,52.1,47.7,30.06,North,11,0.0,0.0,85,0.00,,---,0.00,VWS V14.01,2013-05-06 03:32:00,
2013-05-05 22:37:00,51.7,47.3,30.07,North,11,0.0,0.0,85,0.00,,---,0.00,VWS V14.01,2013-05-06 03:37:00,
2013-05-05 22:42:00,51.4,47.4,30.06,North,11,0.0,0.0,86,0.00,,---,0.00,VWS V14.01,2013-05-06 03:42:00,
2013-05-05 22:47:00,51.0,47.0,30.07,North,11,0.0,0.0,86,0.00,,---,0.00,VWS V14.01,2013-05-06 03:47:00,
2013-05-05 22:52:00,50.7,46.7,30.06,North,11,0.0,0.0,86,0.00,,---,0.00,VWS V14.01,2013-05-06 03:52:00,
2013-05-05 22:57:00,50.4,46.7,30.06,North,11,0.0,0.0,87,0.00,,---,0.00,VWS V14.01,2013-05-06 03:57:00,
2013-05-05 23:01:00,50.2,46.5,30.06,North,11,0.0,0.0,87,0.00,,---,0.00,VWS V14.01,2013-05-06 04:01:00,
2013-05-05 23:02:00,50.2,46.8,30.06,North,11,0.0,0.0,88,0.00,,---,0.00,VWS V14.01,2013-05-06 04:02:00,
2013-05-05 23:03:00,50.1,46.7,30.06,North,11,0.0,0.0,88,0.00,,---,0.00,VWS V14.01,2013-05-06 04:03:00,
2013-05-05 23:08:00,49.8,46.4,30.06,North,11,0.0,0.0,88,0.00,,---,0.00,VWS V14.01,2013-05-06 04:08:00,
2013-05-05 23:13:00,50.0,46.9,30.06,North,11,0.0,0.0,89,0.00,,---,0.00,VWS V14.01,2013-05-06 04:13:00,
2013-05-05 23:18:00,50.3,47.2,30.06,North,11,0.0,0.0,89,0.00,,---,0.00,VWS V14.01,2013-05-06 04:18:00,
2013-05-05 23:23:00,50.6,47.5,30.06,North,11,0.0,0.0,89,0.00,,---,0.00,VWS V14.01,2013-05-06 04:23:00,
2013-05-05 23:28:00,51.3,47.6,30.06,North,11,0.0,0.0,87,0.00,,---,0.00,VWS V14.01,2013-05-06 04:28:00,
2013-05-05 23:33:00,52.0,47.6,30.06,North,11,0.0,0.0,85,0.00,,---,0.00,VWS V14.01,2013-05-06 04:33:00,
2013-05-05 23:38:00,51.9,46.9,30.07,North,11,0.0,0.0,83,0.00,,---,0.00,VWS V14.01,2013-05-06 04:38:00,
2013-05-05 23:43:00,51.4,46.4,30.07,North,11,0.0,0.0,83,0.00,,---,0.00,VWS V14.01,2013-05-06 04:43:00,
2013-05-05 23:48:00,50.9,46.6,30.07,North,11,0.0,0.0,85,0.00,,---,0.00,VWS V14.01,2013-05-06 04:48:00,
2013-05-05 23:53:00,50.7,46.4,30.07,North,11,0.0,0.0,85,0.00,,---,0.00,VWS V14.01,2013-05-06 04:53:00,
2013-05-05 23:59:00,50.4,46.1,30.07,North,11,0.0,0.0,85,0.00,,---,0.00,VWS V14.01,2013-05-06 04:59:00,